Regional Weather Roundup
Issued by NWS

Home | Current Version | Previous Version | Graphics & Text | Print | Product List | Glossary On
Versions: 1 2 3 4 5 6 7 8 9 10 11 12 13 14 15 16 17 18 19 20 21 22 23 24 25 26 27 28 29 30 31 32 33 34 35 36 37 38 39 40 41 42 43 44 45 46 47 48 49 50
000
ASUS43 KOAX 231710
RWRNE

WEATHER ROUNDUP FOR NEBRASKA
NATIONAL WEATHER SERVICE OMAHA NE
1200 PM CDT WED AUG 23 2017

NOTES: SATELLITE DATA IS BEING USED TO AUGMENT CLOUD COVER ABOVE
       12000 FEET.
       "FAIR" INDICATES FEW OR NO CLOUDS BELOW 12,000 FEET WITH NO
       SIGNIFICANT WEATHER AND/OR OBSTRUCTIONS TO VISIBILITY.


NEZ001>004-019>022-054>056-231800-
NEBRASKA PANHANDLE

CITY           SKY/WX    TMP DP  RH WIND       PRES   REMARKS
SCOTTSBLUFF    SUNNY     76  58  53 VRB3      30.11F
ALLIANCE       SUNNY     74  57  55 S10       30.11F
CHADRON        SUNNY     81  56  42 VRB3      30.05F
GORDON         FAIR      78  56  46 SW8       30.08F
KIMBALL        SUNNY     78  57  47 CALM      30.16F
SIDNEY         SUNNY     79  58  48 S9        30.15F
$$

NEZ057>060-069>072-079>082-231800-
SOUTHWEST NEBRASKA

CITY           SKY/WX    TMP DP  RH WIND       PRES   REMARKS
NORTH PLATTE   SUNNY     75  53  46 S20G26    30.15F
IMPERIAL       SUNNY     78  56  46 S17G24    30.15F
LEXINGTON      SUNNY     74  53  48 SW15G22   30.18S
MCCOOK         SUNNY     79  49  34 S14       30.17F
OGALLALA       SUNNY     76  58  53 S12G22    30.14F
$$

NEZ005>010-023>029-035>040-094-231800-
NORTH CENTRAL NEBRASKA

CITY           SKY/WX    TMP DP  RH WIND       PRES   REMARKS
VALENTINE      SUNNY     82  53  36 S21       30.06F
AINSWORTH      SUNNY     77  55  46 S22       30.09F
BROKEN BOW     SUNNY     77  49  37 S17G26    30.14F
O`NEILL        SUNNY     75  58  54 S12       30.12F
ORD            MOSUNNY   73  53  49 S17       30.13F
THEDFORD       SUNNY     78  54  43 S18G30    30.12F
$$

NEZ041-046>049-061>064-073>077-083>087-231800-
SOUTH CENTRAL NEBRASKA

CITY           SKY/WX    TMP DP  RH WIND       PRES   REMARKS
GRAND ISLAND   SUNNY     74  54  49 S14       30.17F
AURORA         SUNNY     73  53  50 SW9       30.17F
HASTINGS       SUNNY     73  53  49 S8        30.19S
HEBRON         SUNNY     76  51  42 S7        30.17F
HOLDREGE       SUNNY     72  50  45 S12G18    30.17F
KEARNEY        SUNNY     73  56  54 SW14      30.18S
YORK           SUNNY     73  57  56 S7        30.18S
$$

NEZ011>018-030>034-042>045-231800-
NORTHEAST NEBRASKA

CITY           SKY/WX    TMP DP  RH WIND       PRES   REMARKS
NORFOLK        SUNNY     73  55  53 S9        30.14F
ALBION         MOSUNNY   73  58  59 S12       30.16S
BLAIR          SUNNY     74  55  51 SW8       30.17S
COLUMBUS       SUNNY     73  56  54 SW10      30.17F
FREMONT        SUNNY     73  56  53 S8        30.17F
TEKAMAH        SUNNY     75  55  49 S6        30.16S
WAYNE          SUNNY     73  58  59 SW9       30.15F
$$

NEZ050>053-065>068-078-088>093-231800-
SOUTHEAST NEBRASKA

CITY           SKY/WX    TMP DP  RH WIND       PRES   REMARKS
LINCOLN        SUNNY     75  55  49 SW6       30.17F
OMAHA EPPLEY   SUNNY     75  49  39 SW6       30.16F
BEATRICE       SUNNY     75  52  43 SE3       30.17F
FALLS CITY     SUNNY     74  52  46 CALM      30.17S
NEBRASKA CITY  SUNNY     73  55  53 S5        30.18S
PLATTSMOUTH    SUNNY     73  53  47 S3        30.17F
$$

NEZ044-045-051>053-067-231800-
OMAHA AREA

CITY           SKY/WX    TMP DP  RH WIND       PRES   REMARKS
OMAHA EPPLEY   SUNNY     75  49  39 SW6       30.16F
BLAIR          SUNNY     74  55  51 SW8       30.17S
FREMONT        SUNNY     73  56  53 S8        30.17F
MILLARD        SUNNY     75  53  45 SW3       30.17S
OFFUTT AFB     SUNNY     75  54  47 S3        30.16F
PLATTSMOUTH    SUNNY     73  53  47 S3        30.17F
WAHOO          FAIR      74  56  54 S8        30.17S
$$




USA.gov is the U.S. government's official web portal to all federal, state and local government web resources and services.